Location: Dos Palmas
(32.4468°N, 116.8732°W)
Time: 00:36:26
(UTC+00:00)

Cosmos 1844 Rocket - Pass Details

Date: 20 June 2021
Orbit: 823 x 846 km, 71.0° (Epoch: 01 August)

Event Time Altitude Azimuth Distance (km) Brightness Sun altitude
Rises 05:59:30 0° 328° (NNW) 3,407 7.1 -28.3°
Reaches altitude 10° 06:02:08 10° 320° (NW) 2,470 6.0 -28.6°
Maximum altitude 06:07:12 34° 257° (WSW) 1,349 3.8 -29.1°
Enters shadow 06:07:33 34° 249° (WSW) 1,356 3.7 -29.1°
